STARLINK-32041, 60202

Orbit data source: Space-Track

STARLINK-32041, 60202 is a payload satellite owned by SpaceX/Seattle (US) in LEO that was launched on Wed, 03 Jul 2024 UTC via an FALCON 9 launch vehicle from the Air Force Eastern Test Range (AFETR). Payload-class satellites include a variety of spacecraft equipped with specific instruments for various scientific and technological missions. These include communications satellites like Starlink; space stations such as the ISS; scientific satellites like the Hubble; Earth observation satellites from companies like Planet Labs, Umbra, and HawkEye 360; GPS; miniature CubeSats for education and research; and military/defense satellites.

Loading next visibility...
Identifier
60202, 2024-124V
Orbit
LEO
Country
Flag of USUS
Related business
Manufacturer
SpaceX/Seattle
Mission
Operational Commercial Communications
Bus & Motor
STARLINK V2M, Unknown motor
Mass
730 kg wet, ~700 kg dry
Launch date (UTC)
2024-07-03 (2 years ago)
Launch vehicle
FALCON 9
Launch site
Air Force Eastern Test Range (AFETR)
Object type
Payload
Rocket body
Debris
Shape & HBR
Box + 2 Pan, 17.7 m
Radar Cross Section
33.884 m², Large (>1 m²)

Expand to show TLE details & history
Last TLE update: 19 hours ago

TLE from 19 hours ago
0 STARLINK-32041
1 60202U 24124V   26034.51818790 -.00000336  00000-0  77977-6 0  9993
2 60202  53.1600 121.2349 0001085  87.1111 273.0014 15.30185116 90267
Epoch: 2026-02-03T12:26Z
TLE epoch observation values (Epoch: 2026-02-03T12:26:11.434Z)
Latitude
-0.00002°
Longitude
160.98927°
Altitude
476.12 km
Speed
7.629 km/s
True Right ascension
08h 04m 56s
True Declination
0° 00' 00"
Sunlit
Object was in full shadow at epoch
Visualization orbit readout
Latitude
Unknown
Longitude
Unknown
Altitude
Unknown
Speed
Unknown
Apparent Right ascension
Unknown
Apparent Declination
Unknown
Sunlit
N/A
Visualization observer readout
Local Sidereal Time
09:09:45
Azimuth
Unknown
Elevation
Unknown
Doppler factor
Unknown
Orbital elements
Apogee altitude
476.26 km
Perigee altitude
474.772 km
Semi-major axis
6,853.653 km
Eccentricity
0.00011
Inclination
53.16°
RAAN
121.2349°
Arg. of periapsis
87.1111°
True anomaly
272.98898°
Mean anomaly
273.0014°
Eccentric anomaly
272.99519°
Mean motion
3.82525 °/min
Orbital period
94.11 mins
BSTAR
7.7977e-7
Loading maneuver chart data...
Computing Atmospheric mass density...
Loading historical data...
Loading historical data...
Loading historical data...
Loading historical data...
Loading historical data...
Loading historical data...
Loading historical data...

Documentation

Showing up to 5 results
|